• In Kazakhstan
  • List of Countries
  • For 7 days
  • Water Temperature
  • Satellite Maps
  • Weather Map
  • News
  • Weather Widgets
  • user-avatar
    Login

    Hourly Weather Solden

    Today, 25 June, Tuesday

    Time Temperature Precipitation Wind Pressure Humidity
    00:00 +8°C° 0 mm 0 mps 589 mmHg 93%
    01:00 +9°C° 0 mm 0 mps 589 mmHg 91%
    02:00 +9°C° 0 mm 0 mps 589 mmHg 91%
    03:00 +8°C° 0 mm 0 mps 589 mmHg 90%
    04:00 +9°C° 0 mm 1 mps 589 mmHg 90%
    05:00 +10°C° 0 mm 0 mps 590 mmHg 86%
    06:00 +11°C° 0 mm 0 mps 590 mmHg 83%
    07:00 +13°C° 0 mm 0 mps 591 mmHg 79%
    08:00 +15°C° 0 mm 0 mps 592 mmHg 71%
    09:00 +19°C° 0 mm 1 mps 593 mmHg 63%
    10:00 +21°C° 0 mm 1 mps 594 mmHg 55%
    11:00 +22°C° 0.1 mm 1 mps 594 mmHg 52%
    12:00 +22°C° 0.1 mm 1 mps 595 mmHg 49%
    13:00 +23°C° 0.1 mm 2 mps 595 mmHg 46%
    14:00 +23°C° 0.1 mm 2 mps 595 mmHg 46%
    15:00 +23°C° 0.1 mm 2 mps 595 mmHg 46%
    16:00 +23°C° 0.1 mm 2 mps 595 mmHg 46%
    17:00 +21°C° 0.2 mm 2 mps 595 mmHg 57%
    18:00 +20°C° 0.2 mm 1 mps 594 mmHg 69%
    19:00 +19°C° 0.2 mm 1 mps 594 mmHg 80%
    20:00 +16°C° 0.1 mm 1 mps 593 mmHg 82%
    21:00 +14°C° 0.1 mm 1 mps 592 mmHg 84%
    22:00 +12°C° 0.1 mm 1 mps 592 mmHg 85%
    23:00 +12°C° 0 mm 1 mps 592 mmHg 84%

    Tomorrow, 26 June, Wednesday

    Time Temperature Precipitation Wind Pressure Humidity
    00:00 +11°C° 0 mm 1 mps 592 mmHg 82%
    01:00 +11°C° 0 mm 1 mps 591 mmHg 81%
    02:00 +11°C° 0 mm 1 mps 591 mmHg 78%
    03:00 +10°C° 0 mm 1 mps 591 mmHg 75%
    04:00 +10°C° 0 mm 1 mps 591 mmHg 71%
    05:00 +12°C° 0 mm 1 mps 592 mmHg 66%
    06:00 +15°C° 0 mm 1 mps 593 mmHg 61%
    07:00 +18°C° 0 mm 1 mps 594 mmHg 55%
    08:00 +20°C° 0 mm 1 mps 595 mmHg 48%
    09:00 +22°C° 0 mm 1 mps 596 mmHg 41%
    10:00 +24°C° 0 mm 1 mps 597 mmHg 34%
    11:00 +25°C° 0 mm 1 mps 597 mmHg 32%
    12:00 +26°C° 0 mm 1 mps 598 mmHg 29%
    13:00 +27°C° 0 mm 2 mps 598 mmHg 27%
    14:00 +27°C° 0 mm 2 mps 598 mmHg 27%
    15:00 +26°C° 0 mm 2 mps 598 mmHg 28%
    16:00 +26°C° 0 mm 2 mps 597 mmHg 29%
    17:00 +24°C° 0.1 mm 2 mps 596 mmHg 43%
    18:00 +22°C° 0.1 mm 1 mps 596 mmHg 57%
    19:00 +20°C° 0.1 mm 1 mps 595 mmHg 71%
    20:00 +18°C° 0.1 mm 1 mps 594 mmHg 74%
    21:00 +16°C° 0.1 mm 1 mps 593 mmHg 76%
    22:00 +14°C° 0.1 mm 1 mps 593 mmHg 79%
    23:00 +13°C° 0 mm 1 mps 593 mmHg 76%

    Day after tomorrow, 27 June, Thursday

    Time Temperature Precipitation Wind Pressure Humidity
    00:00 +13°C° 0 mm 1 mps 592 mmHg 73%
    01:00 +12°C° 0 mm 2 mps 592 mmHg 71%
    02:00 +12°C° 0 mm 2 mps 592 mmHg 68%
    03:00 +12°C° 0 mm 2 mps 591 mmHg 65%
    04:00 +12°C° 0 mm 2 mps 591 mmHg 63%
    05:00 +14°C° 0 mm 1 mps 592 mmHg 59%
    06:00 +16°C° 0 mm 1 mps 593 mmHg 56%
    07:00 +19°C° 0 mm 1 mps 594 mmHg 53%
    08:00 +21°C° 0 mm 1 mps 595 mmHg 45%
    09:00 +23°C° 0 mm 1 mps 595 mmHg 37%
    10:00 +25°C° 0 mm 1 mps 596 mmHg 30%
    11:00 +26°C° 0 mm 1 mps 596 mmHg 27%
    12:00 +27°C° 0 mm 2 mps 596 mmHg 25%
    13:00 +27°C° 0 mm 2 mps 596 mmHg 22%
    14:00 +27°C° 0 mm 2 mps 596 mmHg 24%
    15:00 +27°C° 0 mm 3 mps 596 mmHg 25%
    16:00 +27°C° 0 mm 3 mps 595 mmHg 27%
    17:00 +25°C° 0 mm 2 mps 594 mmHg 35%
    18:00 +23°C° 0 mm 2 mps 593 mmHg 44%
    19:00 +21°C° 0 mm 1 mps 592 mmHg 53%
    20:00 +18°C° 0 mm 2 mps 592 mmHg 54%
    21:00 +16°C° 0 mm 2 mps 591 mmHg 55%
    22:00 +14°C° 0 mm 2 mps 590 mmHg 57%
    23:00 +13°C° 0 mm 3 mps 590 mmHg 60%

    28 June, Friday

    Time Temperature Precipitation Wind Pressure Humidity
    00:00 +12°C° 0 mm 3 mps 590 mmHg 63%
    01:00 +12°C° 0 mm 3 mps 589 mmHg 66%
    02:00 +11°C° 0 mm 3 mps 589 mmHg 68%
    03:00 +12°C° 0 mm 2 mps 589 mmHg 70%
    04:00 +10°C° 0 mm 2 mps 588 mmHg 72%
    05:00 +13°C° 0 mm 2 mps 589 mmHg 70%
    06:00 +14°C° 0 mm 2 mps 590 mmHg 68%
    07:00 +16°C° 0 mm 2 mps 590 mmHg 65%
    08:00 +18°C° 0 mm 2 mps 591 mmHg 55%
    09:00 +21°C° 0 mm 1 mps 592 mmHg 46%
    10:00 +23°C° 0 mm 1 mps 593 mmHg 36%
    11:00 +23°C° 0 mm 1 mps 593 mmHg 33%
    12:00 +24°C° 0 mm 2 mps 593 mmHg 30%
    13:00 +25°C° 0 mm 2 mps 594 mmHg 28%
    14:00 +25°C° 0 mm 2 mps 593 mmHg 29%
    15:00 +25°C° 0 mm 2 mps 593 mmHg 31%
    16:00 +24°C° 0 mm 2 mps 593 mmHg 33%
    17:00 +21°C° 0.3 mm 2 mps 592 mmHg 46%
    18:00 +20°C° 0.3 mm 1 mps 591 mmHg 58%
    19:00 +18°C° 0.3 mm 1 mps 591 mmHg 71%
    20:00 +15°C° 0.2 mm 1 mps 590 mmHg 73%
    21:00 +13°C° 0.2 mm 2 mps 589 mmHg 76%
    22:00 +10°C° 0.2 mm 2 mps 589 mmHg 78%
    23:00 +11°C° 0 mm 1 mps 588 mmHg 78%

    29 June, Saturday

    Time Temperature Precipitation Wind Pressure Humidity
    00:00 +10°C° 0 mm 1 mps 588 mmHg 78%
    01:00 +9°C° 0 mm 1 mps 587 mmHg 78%
    02:00 +9°C° 0 mm 1 mps 587 mmHg 78%
    03:00 +9°C° 0 mm 1 mps 587 mmHg 77%
    04:00 +8°C° 0 mm 1 mps 586 mmHg 76%
    05:00 +10°C° 0 mm 1 mps 587 mmHg 71%
    06:00 +11°C° 0 mm 0 mps 588 mmHg 65%
    07:00 +13°C° 0 mm 0 mps 589 mmHg 60%
    08:00 +15°C° 0 mm 0 mps 590 mmHg 55%
    09:00 +18°C° 0 mm 1 mps 591 mmHg 50%
    10:00 +20°C° 0 mm 1 mps 592 mmHg 46%
    11:00 +21°C° 0 mm 1 mps 592 mmHg 45%
    12:00 +21°C° 0 mm 2 mps 592 mmHg 44%
    13:00 +23°C° 0 mm 2 mps 592 mmHg 42%
    14:00 +21°C° 0 mm 2 mps 592 mmHg 46%
    15:00 +21°C° 0 mm 2 mps 592 mmHg 49%
    16:00 +21°C° 0 mm 2 mps 592 mmHg 52%
    17:00 +19°C° 0.2 mm 2 mps 591 mmHg 62%
    18:00 +18°C° 0.2 mm 2 mps 591 mmHg 72%
    19:00 +16°C° 0.2 mm 1 mps 590 mmHg 83%
    20:00 +15°C° 0 mm 1 mps 590 mmHg 87%
    21:00 +12°C° 0 mm 0 mps 589 mmHg 91%
    22:00 +11°C° 0 mm 0 mps 589 mmHg 96%
    23:00 +11°C° 0 mm 0 mps 589 mmHg 96%

    30 June, Sunday

    Time Temperature Precipitation Wind Pressure Humidity
    00:00 +10°C° 0 mm 0 mps 588 mmHg 96%
    01:00 +10°C° 0 mm 0 mps 588 mmHg 96%
    02:00 +10°C° 0 mm 0 mps 588 mmHg 96%
    03:00 +10°C° 0 mm 0 mps 588 mmHg 95%
    04:00 +9°C° 0 mm 0 mps 588 mmHg 95%
    05:00 +11°C° 0 mm 0 mps 588 mmHg 90%
    06:00 +12°C° 0 mm 0 mps 589 mmHg 85%
    07:00 +13°C° 0 mm 0 mps 590 mmHg 81%
    08:00 +15°C° 0 mm 0 mps 591 mmHg 70%
    09:00 +19°C° 0 mm 1 mps 592 mmHg 60%
    10:00 +21°C° 0 mm 1 mps 593 mmHg 49%
    11:00 +22°C° 0.1 mm 1 mps 593 mmHg 46%
    12:00 +23°C° 0.1 mm 1 mps 593 mmHg 42%
    13:00 +24°C° 0.1 mm 1 mps 593 mmHg 38%
    14:00 +24°C° 0.1 mm 2 mps 593 mmHg 39%
    15:00 +24°C° 0.1 mm 2 mps 593 mmHg 39%
    16:00 +24°C° 0.1 mm 2 mps 593 mmHg 39%
    17:00 +22°C° 0.3 mm 1 mps 592 mmHg 52%
    18:00 +20°C° 0.3 mm 1 mps 591 mmHg 65%
    19:00 +19°C° 0.3 mm 1 mps 591 mmHg 77%
    20:00 +16°C° 0.1 mm 1 mps 590 mmHg 79%
    21:00 +14°C° 0.1 mm 1 mps 589 mmHg 80%
    22:00 +12°C° 0.1 mm 1 mps 589 mmHg 82%
    23:00 +12°C° 0 mm 1 mps 589 mmHg 81%
    Show more